Regional Weather Roundup
Issued by NWS

Home | Current Version | Previous Version | Text Only | Print | Product List | Glossary Off
Versions: 1 2 3 4 5 6 7 8 9 10 11 12 13 14 15 16 17 18 19 20 21 22 23 24 25 26 27 28 29 30 31 32 33 34 35 36 37 38 39 40 41 42 43 44 45 46 47 48

209
ASUS44 KJAN 060803
RWRMS

MISSISSIPPI HOURLY WEATHER ROUNDUP
NATIONAL WEATHER SERVICE JACKSON MS
200 AM CST FRI MAR 06 2015

NOTE: "FAIR: INDICATES FEW OR NO CLOUDS BELOW 12,000 FEET WITH NO
SIGNIFICANT WEATHER AND/OR OBSTRUCTIONS TO VISIBILITY.

MSZ001>002-007>008-010>013-018>021-025>028-034>036-060900-
NORTHWEST MISSISSIPPI

CITY           SKY/WX    TMP DP  RH WIND       PRES   REMARKS
CLARKSDALE       N/A     23  19  86 CALM      30.60S
CLEVELAND      FAIR      25  19  80 NE7       30.58S WCI  17
GREENWOOD      CLEAR     20  13  74 N6        30.56F WCI  12
GREENVILLE     CLEAR     26  19  74 MISG      30.57S
OLIVE BRANCH   CLEAR     18  14  86 CALM      30.58S
OXFORD         FAIR      16  12  86 N3        30.57S
TUNICA         SUNNY     21  18  86 N3        30.60S
$$

MSZ003>006-009-014>017-022>024-029>033-037>039-060900-
NORTHEAST MISSISSIPPI

CITY           SKY/WX    TMP DP  RH WIND       PRES   REMARKS
COLUMBUS AFB   CLEAR     23  15  69 N10       30.53S WCI  13
CORINTH        FAIR      19  10  68 NE7       30.55F WCI  10
GOLDN TRIANGLE CLEAR     23  16  74 N8        30.51F WCI  14
STARKVILLE     FAIR      23  18  80 CALM      30.53F
TUPELO         CLEAR     20  12  71 NE8       30.55S WCI  10
$$

MSZ040-058-060900-
CENTRAL MISSISSIPPI

CITY           SKY/WX    TMP DP  RH WIND       PRES   REMARKS
JACKSON INTL   PTCLDY    26  15  63 MISG      30.51S
JACKSON HAWKNS PTCLDY    24  13  62 N7        30.51F WCI  16
MERIDIAN KEY   CLEAR     25  17  72 N14       30.48F WCI  13
MERIDIAN NAS   PTCLDY    24  18  77 N8        30.50S WCI  15
VICKSBURG      CLEAR     26  16  65 N9        30.55F WCI  17
$$

MSZ059>079-060900-
SOUTH MISSISSIPPI

CITY           SKY/WX    TMP DP  RH WIND       PRES   REMARKS
BROOKHAVEN     FAIR      27  21  80 CALM      30.51R
HATTIESBURG    CLEAR     30  19  63 N10       30.47S WCI  21
MCCOMB         CLEAR     26  16  65 N9        30.48S WCI  17
NATCHEZ        CLEAR     27  12  54 N7        30.52S WCI  19
PINE BELT      CLEAR     27  18  69 N12       30.46S WCI  16
$$

MSZ080>082-060900-
COASTAL MISSISSIPPI

CITY           SKY/WX    TMP DP  RH WIND       PRES   REMARKS
BILOXI         PTCLDY    32  21  64 N15G24    30.40F WCI  21
PASCAGOULA     PTCLDY    31  21  66 N17       30.40F WCI  19
GULFPORT       PTCLDY    31  18  58 N16G24    30.41S WCI  20
$$



USA.gov is the U.S. government's official web portal to all federal, state and local government web resources and services.